GFSNGP_850_rhum_015.txt.gz
RH
51 53 39 34 34 51 54 53 58 51 59 50 68 73 66 66 66 64 60 52 40 38 42 42 40 38 35 34 32 31 31 32 35 39 45 47 51 49 62 99 100 90 79 62
57 63 64 44 40 45 47 43 57 49 57 61 63 63 70 67 65 62 58 46 38 38 37 40 37 33 32 31 31 34 34 37 40 44 49 53 59 53 74 84 93 92 83 72
51 76 61 47 52 53 44 42 43 58 56 67 74 72 70 66 64 62 54 44 40 38 36 34 32 31 31 32 35 37 40 42 46 51 55 62 64 66 76 77 82 88 82 72
74 69 46 36 46 44 44 48 62 68 72 67 69 65 64 64 63 59 52 43 39 36 33 31 31 32 35 37 38 39 41 49 54 56 64 67 69 76 82 81 80 76 74 70
72 75 46 32 48 53 52 52 68 72 70 64 67 69 67 64 60 53 47 40 38 34 32 33 34 37 39 41 42 44 49 53 59 68 71 72 78 79 79 76 73 72 78 83
97 58 46 36 50 42 42 71 67 65 72 76 73 91 83 63 60 60 42 39 36 34 34 37 40 41 42 44 47 48 52 64 73 75 71 79 81 78 79 87 93 95 84 76
99 78 68 49 48 41 60 51 68 61 64 70 79 65 56 66 64 46 40 38 35 37 39 41 40 40 41 40 44 55 66 70 78 76 76 75 74 77 77 76 84 80 81 82
96 92 62 44 52 61 54 39 49 60 60 64 65 62 69 67 45 43 40 38 39 40 40 36 34 31 29 34 52 65 64 65 86 87 86 79 81 81 81 80 83 86 87 80
72 70 47 47 44 41 37 35 55 56 64 68 67 71 70 63 46 41 39 40 40 39 33 27 25 28 34 40 46 49 59 76 94 97 95 72 76 83 86 85 89 94 85 81
68 50 56 41 43 47 42 42 46 56 66 71 69 68 72 59 43 40 40 40 38 33 24 22 27 32 45 46 47 62 76 88 94 99 97 77 73 84 91 95 98 96 84 83
80 64 59 52 45 42 45 54 60 67 70 71 66 76 66 44 41 40 39 36 33 23 24 29 35 41 48 51 58 76 92 96 92 98 96 86 71 95 100 99 99 96 84 86
66 40 50 45 41 48 52 56 68 73 74 75 76 62 42 40 38 34 35 26 23 27 31 35 39 42 48 59 67 88 100 99 97 98 96 96 96 96 100 100 100 92 92 88
42 39 44 46 53 53 62 69 75 79 79 59 47 43 40 38 33 26 24 26 28 34 40 42 40 40 49 65 83 99 99 99 96 99 97 97 99 98 98 100 100 97 93 88
43 56 65 62 60 71 78 80 83 67 48 69 70 40 39 32 26 24 25 31 39 44 43 43 42 39 54 84 99 99 99 98 94 92 92 94 99 98 96 96 98 95 94 90
53 53 56 57 73 83 80 76 59 52 90 72 43 41 33 26 23 25 34 44 48 47 48 45 45 52 87 94 100 100 99 98 93 91 95 98 98 96 96 98 98 97 96 92
58 67 71 70 79 71 59 46 66 98 57 47 41 32 24 22 28 36 45 50 50 51 48 52 61 86 98 100 100 99 99 96 96 96 99 97 95 93 96 96 97 97 95 94
69 84 84 69 62 64 82 98 96 53 47 34 28 21 23 32 37 43 49 53 58 55 62 77 84 99 98 100 96 98 100 99 99 100 100 95 93 94 99 98 97 98 94 98
80 78 73 70 90 98 100 92 52 37 31 22 20 29 35 39 45 48 54 58 60 69 76 86 87 88 100 100 100 100 99 97 99 100 100 100 90 94 98 96 98 98 91 97
87 93 100 98 85 81 57 35 27 18 18 25 33 39 44 50 51 54 61 64 63 73 72 86 94 95 94 93 100 100 100 100 99 100 83 75 84 91 94 95 95 98 93 96
98 94 81 44 35 31 22 19 20 24 29 36 46 52 55 49 52 58 68 69 69 80 76 88 98 100 100 100 99 98 99 99 98 99 96 97 96 90 94 94 93 94 94 96
48 40 37 28 22 21 22 25 31 44 52 55 59 55 56 54 58 68 76 79 74 83 82 89 91 98 99 100 100 100 100 100 99 100 100 100 100 100 100 98 94 91 92 94
51 50 49 44 41 41 47 52 55 49 50 50 57 62 67 64 68 78 87 90 93 89 88 89 91 88 94 98 98 96 95 95 99 98 99 100 100 100 98 99 97 90 93 95
65 67 60 47 42 44 42 42 49 56 61 60 60 60 63 63 70 84 86 93 98 93 91 95 94 92 92 93 94 94 94 92 93 94 98 98 98 97 97 97 96 95 88 94
42 42 46 53 56 56 52 49 56 58 57 55 53 56 62 65 65 61 85 96 93 94 96 97 96 92 90 91 93 97 98 100 100 99 98 98 98 97 96 97 97 96 95 95
65 66 71 72 70 68 67 66 65 62 61 60 59 65 75 75 76 70 84 87 93 94 93 95 91 90 92 86 96 96 97 100 99 97 98 98 97 97 96 96 96 96 96 96
76 75 73 75 80 82 81 79 77 78 85 84 80 81 87 88 86 95 100 98 99 97 99 98 95 93 82 79 74 79 78 76 76 79 97 100 100 100 100 98 96 96 96 96
54 54 53 55 64 72 79 88 93 87 90 97 97 90 92 88 77 83 87 98 98 98 98 96 95 86 72 66 65 67 67 64 62 60 61 69 86 100 100 100 97 96 96 97

GFSNGP_850_rhum_021.txt.gz
RH
54 54 46 36 44 49 41 43 47 39 42 33 37 48 55 69 75 71 68 66 63 57 48 44 44 62 44 44 37 34 32 38 39 41 43 50 55 57 58 63 67 71 73 78
57 60 58 50 42 44 50 49 43 46 45 36 39 55 63 63 71 72 68 64 60 53 44 41 60 47 46 38 34 32 38 40 41 43 44 54 56 59 61 66 71 85 83 82
54 62 49 52 45 43 45 47 43 49 36 55 56 61 59 67 68 70 66 63 61 49 43 50 57 41 37 34 32 37 40 36 40 34 47 55 60 54 63 68 70 79 85 79
62 64 46 32 44 41 43 41 41 41 42 51 55 54 55 56 60 66 64 63 58 46 44 59 38 34 33 33 37 39 33 30 28 40 53 55 55 65 72 69 70 78 80 86
69 56 40 23 35 49 53 35 42 40 48 67 70 67 62 58 59 59 62 62 56 46 42 38 34 33 34 39 38 28 24 26 38 49 48 47 73 81 81 70 76 82 80 85
75 52 48 33 30 45 42 57 40 49 64 73 70 71 52 48 58 63 64 63 55 44 40 36 34 35 40 34 23 20 25 34 40 42 40 48 82 91 83 71 79 81 85 93
78 69 55 40 40 43 48 46 38 50 49 71 67 48 38 44 58 64 64 58 49 41 36 35 38 40 31 20 19 26 35 37 39 38 41 57 82 89 82 70 77 81 86 88
84 74 62 40 51 54 46 36 30 42 41 44 34 38 50 54 60 67 62 59 47 46 38 39 40 29 19 21 27 33 36 38 38 39 48 70 90 87 88 75 79 86 88 91
60 61 41 37 44 35 41 39 34 38 38 42 45 45 56 57 63 67 63 47 62 51 41 38 26 20 23 28 32 33 35 36 38 53 61 91 97 94 94 80 87 93 94 95
62 46 52 40 35 32 32 36 35 41 44 49 52 61 68 68 70 55 62 80 68 42 35 24 21 24 28 32 36 37 38 41 57 77 90 99 92 97 94 77 81 94 94 96
70 58 46 33 31 32 36 38 39 43 48 52 60 70 72 74 52 75 98 73 42 34 24 21 23 26 30 35 37 40 42 55 74 80 97 97 97 98 94 89 91 96 93 95
65 33 40 36 37 44 48 47 48 54 57 63 75 79 81 60 86 96 55 41 31 26 21 24 27 32 36 38 39 46 54 77 80 86 88 90 93 95 94 90 93 93 81 90
43 46 48 49 50 54 57 60 61 69 79 83 87 83 72 99 95 50 36 44 32 22 26 30 35 37 38 39 45 55 74 83 88 87 92 93 94 96 96 93 91 92 90 90
71 70 64 65 72 71 71 73 76 81 83 81 84 99 100 88 81 70 48 29 24 28 34 39 38 40 43 47 53 65 81 88 90 88 88 97 97 99 94 95 98 92 86 95
67 79 81 85 84 84 86 81 77 89 99 100 100 96 91 87 82 49 30 26 31 37 42 42 43 47 49 57 68 76 87 93 95 100 94 92 96 100 92 88 96 88 89 97
98 92 86 81 83 91 92 98 98 100 97 94 94 96 81 57 45 32 33 36 38 44 46 45 47 55 57 66 74 85 94 96 100 96 97 95 97 98 95 93 93 93 96 92
92 92 97 99 99 100 100 98 97 96 95 82 64 55 48 39 38 37 38 41 44 48 50 52 56 65 70 74 81 91 100 98 95 95 97 97 96 98 100 91 89 89 83 89
97 99 100 98 98 97 96 86 69 58 52 44 46 40 34 41 47 46 49 52 49 52 54 64 74 81 84 85 93 99 99 97 97 93 90 92 97 99 99 80 78 84 85 84
93 92 88 77 68 60 53 48 45 45 41 34 36 43 48 47 49 54 57 58 52 50 55 79 85 92 94 92 96 99 99 92 91 90 89 95 97 98 99 95 88 83 86 91
56 50 48 46 53 52 44 38 39 40 40 41 42 45 48 54 64 64 66 63 60 60 73 81 94 99 99 93 90 96 98 91 91 88 88 94 98 96 97 96 94 98 97 95
66 62 56 50 48 48 51 54 55 55 54 56 58 61 66 62 59 60 60 59 51 64 67 73 100 100 95 88 94 94 96 94 89 89 92 98 98 98 97 98 98 98 97 97
78 73 62 56 58 63 69 70 71 72 73 74 75 70 67 62 62 63 66 70 70 77 76 83 95 94 89 90 91 94 95 100 95 97 95 97 98 97 98 98 97 96 96 95
59 62 69 71 71 74 79 74 73 72 71 72 75 81 86 89 96 98 94 94 97 97 97 97 95 97 98 93 94 97 96 96 95 97 100 100 100 100 100 100 100 98 97 97
75 79 82 83 82 68 55 54 59 58 56 51 44 47 55 58 59 81 86 88 89 99 100 100 100 93 92 96 98 95 95 96 95 92 84 79 76 70 69 71 73 96 100 100
82 80 70 58 49 43 40 38 36 36 38 41 44 46 53 66 93 80 83 91 90 99 99 98 89 84 100 98 97 91 94 94 93 83 76 70 65 59 55 54 55 56 66 84
67 54 49 46 46 47 50 51 51 51 50 47 47 49 50 56 66 93 93 94 97 99 99 97 97 94 100 97 96 93 94 95 95 91 74 65 59 56 55 55 55 58 69 80
55 52 50 50 52 53 53 51 48 43 42 46 43 45 53 59 67 75 97 96 100 99 98 97 97 98 98 96 96 97 97 96 94 83 68 61 59 59 61 65 69 74 86 94

GFSNGP_850_rhum_024.txt.gz
RH
32 33 32 28 29 30 27 24 32 16 20 12 15 18 22 32 41 47 55 59 62 62 60 61 58 48 63 57 47 43 42 40 46 52 50 57 67 76 76 78 80 81 86 93
44 41 37 36 28 26 27 25 27 23 22 16 19 24 30 40 45 50 54 57 60 62 60 57 51 52 62 61 45 41 37 45 48 34 48 60 72 75 71 78 78 81 84 97
41 43 41 61 37 27 25 27 28 30 21 18 26 28 28 35 45 48 52 56 59 60 57 54 53 61 66 50 41 35 41 42 41 46 51 63 66 67 70 76 84 84 92 96
58 62 77 20 25 24 25 23 20 23 18 23 23 34 42 42 40 49 53 57 59 58 56 53 56 56 47 40 35 35 39 39 47 53 60 64 67 69 76 80 81 82 90 92
84 40 26 14 22 28 32 21 20 21 20 22 44 48 39 43 48 50 56 60 60 59 56 55 53 51 36 36 42 39 39 43 50 56 66 64 64 72 80 82 81 85 90 94
66 86 86 25 30 38 34 32 24 30 32 38 47 47 20 30 33 55 64 63 61 57 54 47 56 37 42 43 40 39 27 26 31 62 68 66 69 79 85 85 84 86 89 98
66 83 44 25 26 40 38 29 32 39 39 46 44 30 40 33 41 61 64 64 61 57 48 46 36 61 42 41 30 25 21 27 44 66 71 73 79 87 87 86 89 97 72 88
73 93 78 31 40 44 34 37 40 38 42 48 44 54 58 59 58 62 64 59 57 51 42 40 81 51 40 33 22 21 26 32 63 69 76 82 88 90 90 93 97 100 91 86
44 39 33 36 33 39 46 43 42 47 41 52 53 55 59 64 68 63 55 50 51 54 68 92 44 34 29 26 21 27 32 42 77 86 89 86 90 94 99 97 97 100 100 100
48 28 32 35 38 38 39 41 42 42 46 51 56 53 63 68 61 55 53 59 60 73 91 61 51 21 22 23 27 32 37 70 82 90 88 91 92 100 100 100 100 99 98 94
50 39 35 35 38 42 45 50 53 53 57 63 65 64 68 65 59 57 62 78 98 92 79 38 22 23 24 27 33 38 56 78 83 95 94 90 92 100 100 100 99 99 97 98
49 44 43 39 46 54 59 60 67 72 71 77 79 78 72 64 75 79 99 96 89 53 40 23 23 26 31 35 36 39 49 71 96 97 96 100 100 100 97 91 90 85 83 83
62 69 68 66 68 82 81 75 75 75 79 79 77 73 84 91 100 98 85 86 87 43 23 28 30 34 36 37 40 47 54 66 94 99 100 100 100 100 100 98 94 93 95 90
84 82 67 82 80 78 80 87 92 98 99 100 100 100 100 95 96 96 93 68 45 31 33 31 36 38 39 44 50 56 62 76 94 100 100 96 99 94 96 99 98 100 100 98
81 82 86 76 78 87 94 100 99 100 100 99 97 95 96 96 91 76 48 37 28 30 33 38 42 46 50 54 58 66 77 98 100 98 99 96 94 94 92 92 98 100 100 98
92 87 89 95 99 99 98 100 95 98 95 94 85 72 60 49 42 36 36 39 39 38 44 48 49 54 57 66 73 80 100 100 100 100 100 93 100 94 92 93 97 99 100 100
92 99 99 99 100 97 95 92 82 64 57 59 63 66 63 56 46 44 45 46 44 43 46 52 51 63 70 79 86 97 100 100 100 99 100 100 91 90 91 93 98 100 100 100
96 98 95 89 89 84 76 77 94 84 81 65 49 40 40 44 52 55 53 51 50 47 46 46 55 70 80 88 96 99 98 96 100 99 98 96 88 89 95 95 98 100 100 100
95 91 92 92 94 89 77 58 48 42 43 45 47 48 50 53 57 59 64 62 59 58 50 61 67 77 83 95 94 95 95 94 96 93 95 95 88 94 93 93 96 96 99 98
76 57 45 41 41 42 50 52 52 53 54 54 55 60 61 58 63 64 63 61 59 57 60 64 66 66 68 88 95 92 97 85 91 91 89 93 92 94 94 100 99 98 98 96
67 65 60 54 54 56 57 58 59 60 65 66 66 68 66 58 61 64 65 74 87 88 88 82 80 80 84 97 96 100 86 92 95 91 93 93 92 92 92 95 97 98 99 100
76 59 54 59 63 65 67 68 69 70 67 66 68 71 70 70 69 66 73 93 96 100 99 100 98 99 97 98 95 96 97 99 96 91 94 95 94 91 91 92 92 93 94 96
65 70 73 75 75 79 82 64 47 38 34 33 33 35 39 43 61 80 83 96 100 99 93 92 98 95 99 98 97 96 97 100 98 95 94 96 95 93 89 81 76 80 87 91
75 80 80 76 69 52 41 39 38 37 38 40 43 43 48 61 64 94 98 90 95 100 100 100 99 98 99 97 94 99 100 97 96 96 97 96 95 87 74 65 58 53 50 48
84 78 63 49 46 48 44 42 42 43 36 29 25 21 24 40 71 44 61 84 97 100 97 91 97 96 98 97 97 100 99 96 95 99 97 96 95 94 68 58 56 56 56 57
65 54 54 51 49 46 44 38 29 26 21 39 44 45 56 74 99 87 85 96 100 100 98 96 94 98 98 96 96 96 96 96 96 97 98 96 94 81 60 58 60 63 66 73
58 57 53 53 47 38 27 21 21 23 28 37 42 53 89 93 91 95 99 100 100 99 99 99 98 97 96 96 96 96 96 96 96 96 94 84 69 58 54 52 57 69 80 89

GFSNGP_850_rhum_030.txt.gz
RH
19 19 22 24 20 18 19 22 35 29 18 14 12 15 13 13 16 19 20 27 31 34 42 49 54 59 61 63 65 62 65 65 55 57 42 59 54 52 52 58 65 69 65 66
38 27 25 28 23 21 18 16 17 16 16 11 12 16 16 16 15 17 20 21 27 33 39 48 53 56 58 62 60 68 68 62 51 65 51 51 54 50 51 61 64 60 64 66
52 34 33 52 33 24 19 16 17 24 20 15 14 13 18 19 19 20 24 25 26 32 38 43 48 55 55 60 56 65 66 59 66 52 52 55 51 53 53 54 56 59 66 70
72 65 64 21 15 15 18 15 13 12 15 14 22 21 19 19 21 24 24 27 29 30 35 41 48 53 55 57 56 62 67 57 60 50 52 49 50 44 51 54 56 61 68 69
95 55 30 22 15 18 20 20 17 18 17 16 19 22 20 24 28 28 29 29 28 32 38 43 50 53 56 55 62 61 65 61 65 64 49 52 49 55 57 63 64 66 70 73
69 82 78 32 21 20 19 35 21 22 24 23 21 46 33 36 33 31 32 33 36 38 43 49 52 53 58 63 53 60 66 74 64 78 45 39 53 62 74 72 75 72 72 78
74 88 61 23 22 24 42 51 27 28 28 28 34 33 36 37 40 40 37 40 44 48 50 53 53 54 51 48 58 84 87 80 61 69 42 64 78 81 82 83 78 75 80 82
79 96 89 21 25 36 40 30 30 30 31 34 35 36 37 37 37 44 45 49 53 52 51 50 51 56 74 79 98 96 82 83 64 43 52 85 86 81 81 73 79 90 96 94
58 62 32 21 24 24 28 31 33 34 36 38 41 43 42 43 46 51 50 49 47 50 57 70 70 82 86 92 92 84 74 42 35 48 79 84 81 79 76 80 83 75 88 96
44 23 23 23 25 27 36 42 45 46 47 51 53 58 55 53 55 51 45 48 61 75 71 76 88 89 86 81 86 71 46 36 66 83 83 77 62 78 84 79 82 86 81 87
36 30 31 32 48 54 57 58 61 62 62 64 63 62 60 53 56 60 76 76 76 82 93 93 87 92 93 83 59 43 50 48 51 53 48 56 83 84 85 85 91 90 85 88
64 50 52 54 62 61 64 64 67 65 67 71 66 67 66 72 84 72 74 83 85 88 89 94 92 80 74 71 52 45 40 40 44 47 57 70 91 93 86 84 86 86 92 94
52 62 62 64 66 76 86 88 87 85 86 87 83 77 75 77 82 84 82 87 98 99 81 88 88 60 38 39 40 40 44 47 52 68 80 89 88 90 93 85 88 85 96 96
64 66 66 63 73 84 91 96 85 86 87 86 88 86 85 88 96 99 97 93 92 83 72 69 63 58 59 53 54 51 56 65 84 92 95 89 83 86 90 88 86 83 79 85
63 64 73 86 89 91 92 93 94 98 100 100 98 90 88 87 86 86 88 88 66 50 71 72 73 58 64 67 74 80 84 87 88 93 90 87 91 88 90 85 83 82 95 84
83 84 89 90 90 90 87 89 94 90 82 87 87 83 79 74 73 71 74 75 56 48 47 50 48 47 52 55 65 76 84 82 86 86 89 91 97 97 98 98 98 88 81 89
91 97 93 88 86 81 74 83 90 93 85 62 43 42 42 44 65 66 53 53 55 52 52 55 71 83 84 79 82 95 95 93 88 94 96 84 88 92 92 96 100 98 94 80
86 92 90 84 80 82 83 86 66 56 42 46 44 47 49 50 54 62 58 52 51 53 71 100 100 97 99 100 99 98 94 90 86 92 100 99 90 89 82 87 94 98 95 86
87 86 82 83 80 75 81 60 63 65 53 54 53 54 58 56 51 44 36 30 37 90 99 96 91 88 82 80 86 93 98 100 98 95 88 92 100 90 85 91 91 94 96 93
78 79 80 71 70 58 49 74 94 65 60 56 44 35 33 31 32 32 41 68 89 98 98 90 84 63 74 84 91 87 79 82 92 92 93 98 96 92 87 91 86 93 96 96
74 80 53 48 54 59 58 64 65 54 40 37 36 34 29 28 34 40 68 83 97 86 76 38 41 87 91 87 75 77 78 79 88 90 96 98 96 98 95 95 93 97 98 97
81 55 59 71 77 71 72 62 45 41 41 38 33 28 21 18 26 48 71 93 80 61 44 56 96 93 85 80 83 87 96 99 98 98 95 91 100 98 98 98 99 100 100 98
68 66 73 94 100 76 60 51 47 47 45 37 36 27 22 29 60 71 97 83 87 73 62 99 88 73 72 76 98 100 100 100 97 98 97 96 97 97 96 97 99 100 100 99
96 100 89 81 68 58 70 60 59 69 56 47 58 53 45 54 70 91 84 83 80 78 88 98 71 64 69 78 90 93 100 98 93 95 96 96 96 96 96 96 97 98 97 93
93 85 76 73 79 79 75 59 59 63 52 45 71 75 74 94 93 90 97 100 100 100 100 100 99 79 75 81 88 92 96 98 95 97 97 97 97 97 97 96 96 95 70 60
90 88 76 67 68 68 57 36 31 50 45 83 85 58 93 95 95 97 100 99 99 100 100 100 100 100 94 91 98 100 98 98 96 96 97 97 97 97 97 97 95 68 59 57
81 86 88 91 83 61 36 28 42 34 75 91 83 69 99 100 98 99 100 100 100 100 100 100 100 100 100 100 100 100 100 98 100 98 98 98 98 98 98 98 92 74 72 73